JJA1513 RKSI-RJCH

Flight info

Callsign JJA1513
Flight time 1h 58m
Altitude 35000
Route EGOBA2Y EGOBA Y697 LANAT Y51 SAMON Y14 GOLDO Y19 MRE Y113 TAXIR
Aircraft B738/M-SDE2E3FGHIRWXY/LB1

Departure

Time 2026-04-29 11:04
Airport Incheon International Airport (RKSI)

Arrival

Time 2026-04-29 13:02
Airport Hakodate Airport (RJCH)
Time Latitude Longitude Altitude Speed Heading
2026-04-29 10:45 37.45126 126.45513 4 ft 1 kts 188°
2026-04-29 10:57 37.45127 126.45513 31 ft 1 kts 188°
2026-04-29 10:57 37.45143 126.45516 31 ft 3 kts 186°
2026-04-29 10:57 37.45163 126.45518 31 ft 3 kts 183°
2026-04-29 10:58 37.45184 126.45519 31 ft 3 kts 178°
2026-04-29 10:58 37.45204 126.45517 31 ft 3 kts 167°
2026-04-29 10:58 37.45222 126.45509 31 ft 3 kts 139°
2026-04-29 10:58 37.45230 126.45497 31 ft 1 kts 99°
2026-04-29 10:59 37.45230 126.45495 31 ft 1 kts 98°
2026-04-29 11:01 37.45230 126.45497 31 ft 1 kts 98°
2026-04-29 11:01 37.45223 126.45547 30 ft 10 kts 101°
2026-04-29 11:01 37.45207 126.45643 31 ft 11 kts 95°
2026-04-29 11:01 37.45234 126.45731 31 ft 11 kts 56°
2026-04-29 11:02 37.45277 126.45809 30 ft 11 kts 55°
2026-04-29 11:02 37.45319 126.45882 31 ft 10 kts 54°
2026-04-29 11:02 37.45360 126.45954 31 ft 10 kts 54°
2026-04-29 11:02 37.45400 126.46025 31 ft 10 kts 54°
2026-04-29 11:03 37.45453 126.46060 31 ft 9 kts 338°
2026-04-29 11:03 37.45528 126.45994 31 ft 30 kts 324°
2026-04-29 11:03 37.45915 126.45651 32 ft 105 kts 324°
2026-04-29 11:03 37.46687 126.44957 36 ft 166 kts 323°
2026-04-29 11:04 37.47658 126.44094 733 ft 169 kts 323°
2026-04-29 11:04 37.48617 126.43290 1712 ft 164 kts 325°
2026-04-29 11:04 37.49649 126.42440 2062 ft 192 kts 326°
2026-04-29 11:04 37.50809 126.41479 2387 ft 209 kts 326°
2026-04-29 11:05 37.52060 126.40438 2827 ft 220 kts 327°
2026-04-29 11:05 37.53359 126.39383 3364 ft 228 kts 328°
2026-04-29 11:05 37.54719 126.38282 3972 ft 236 kts 328°
2026-04-29 11:05 37.56123 126.37213 4744 ft 236 kts 337°
2026-04-29 11:06 37.57696 126.36568 5392 ft 240 kts 345°
2026-04-29 11:06 37.59310 126.36029 5473 ft 238 kts 346°
2026-04-29 11:06 37.60911 126.35493 5526 ft 238 kts 346°
2026-04-29 11:06 37.62558 126.35277 5557 ft 243 kts 12°
2026-04-29 11:07 37.64078 126.36178 6137 ft 245 kts 40°
2026-04-29 11:07 37.65105 126.37882 6883 ft 246 kts 64°
2026-04-29 11:07 37.65736 126.39907 7537 ft 250 kts 70°
2026-04-29 11:07 37.66307 126.41994 8191 ft 253 kts 70°
2026-04-29 11:08 37.66805 126.44135 8826 ft 257 kts 83°
2026-04-29 11:08 37.66578 126.46432 9142 ft 276 kts 109°
2026-04-29 11:08 37.65917 126.48664 9676 ft 283 kts 110°
2026-04-29 11:08 37.65223 126.51011 10308 ft 288 kts 110°
2026-04-29 11:09 37.64498 126.53468 10485 ft 309 kts 112°
2026-04-29 11:09 37.63285 126.55804 10636 ft 330 kts 135°
2026-04-29 11:09 37.61554 126.57778 11065 ft 339 kts 137°
2026-04-29 11:09 37.59778 126.59762 11680 ft 343 kts 137°
2026-04-29 11:10 37.57993 126.61764 12361 ft 345 kts 137°
2026-04-29 11:10 37.56199 126.63791 13060 ft 347 kts 137°
2026-04-29 11:10 37.54397 126.65838 13752 ft 351 kts 137°
2026-04-29 11:10 37.52576 126.67911 14370 ft 354 kts 137°
2026-04-29 11:11 37.50734 126.70011 14954 ft 359 kts 138°
2026-04-29 11:11 37.48865 126.72143 15477 ft 366 kts 139°
2026-04-29 11:11 37.46958 126.74317 15981 ft 373 kts 139°
2026-04-29 11:11 37.45016 126.76527 16511 ft 379 kts 140°
2026-04-29 11:12 37.43101 126.78791 17007 ft 387 kts 133°
2026-04-29 11:12 37.41714 126.81731 17493 ft 398 kts 110°
2026-04-29 11:12 37.41216 126.85173 17997 ft 406 kts 91°
2026-04-29 11:12 37.41257 126.88760 18475 ft 413 kts 89°
2026-04-29 11:13 37.41332 126.92403 18873 ft 419 kts 88°
2026-04-29 11:13 37.41686 126.96056 19327 ft 423 kts 79°
2026-04-29 11:13 37.42298 126.99704 19780 ft 428 kts 77°
2026-04-29 11:13 37.42970 127.03381 20135 ft 436 kts 76°
2026-04-29 11:14 37.43648 127.07124 20577 ft 440 kts 77°
2026-04-29 11:14 37.44307 127.10897 21078 ft 443 kts 77°
2026-04-29 11:14 37.44946 127.14695 21602 ft 445 kts 77°
2026-04-29 11:14 37.45575 127.18527 22034 ft 450 kts 78°
2026-04-29 11:15 37.46204 127.22404 22365 ft 456 kts 78°
2026-04-29 11:15 37.46837 127.26337 22740 ft 460 kts 78°
2026-04-29 11:15 37.47476 127.30301 23125 ft 464 kts 78°
2026-04-29 11:15 37.48121 127.34298 23536 ft 468 kts 78°
2026-04-29 11:16 37.48762 127.38280 23884 ft 472 kts 78°
2026-04-29 11:16 37.49420 127.42343 24217 ft 475 kts 78°
2026-04-29 11:16 37.50084 127.46439 24553 ft 479 kts 78°
2026-04-29 11:16 37.50753 127.50566 24827 ft 483 kts 78°
2026-04-29 11:17 37.51428 127.54744 25098 ft 488 kts 78°
2026-04-29 11:17 37.52105 127.58945 25403 ft 491 kts 78°
2026-04-29 11:17 37.52786 127.63181 25724 ft 494 kts 78°
2026-04-29 11:17 37.53468 127.67442 25992 ft 498 kts 78°
2026-04-29 11:18 37.54152 127.71742 26247 ft 502 kts 78°
2026-04-29 11:18 37.54838 127.76069 26531 ft 506 kts 78°
2026-04-29 11:18 37.55527 127.80433 26812 ft 509 kts 79°
2026-04-29 11:18 37.56219 127.84818 27124 ft 512 kts 79°
2026-04-29 11:19 37.56913 127.89232 27416 ft 515 kts 79°
2026-04-29 11:19 37.57610 127.93677 27685 ft 518 kts 79°
2026-04-29 11:19 37.58301 127.98091 27913 ft 521 kts 79°
2026-04-29 11:19 37.59005 128.02593 28115 ft 526 kts 79°
2026-04-29 11:20 37.59711 128.07126 28359 ft 529 kts 79°
2026-04-29 11:20 37.60420 128.11686 28645 ft 531 kts 79°
2026-04-29 11:20 37.61131 128.16272 28903 ft 534 kts 79°
2026-04-29 11:20 37.61845 128.20877 29178 ft 537 kts 79°
2026-04-29 11:21 37.62563 128.25517 29406 ft 540 kts 79°
2026-04-29 11:21 37.63284 128.30179 29648 ft 543 kts 79°
2026-04-29 11:21 37.64007 128.34870 29892 ft 546 kts 79°
2026-04-29 11:21 37.64731 128.39588 30129 ft 548 kts 79°
2026-04-29 11:22 37.65457 128.44324 30341 ft 550 kts 79°
2026-04-29 11:22 37.66182 128.49068 30629 ft 550 kts 80°
2026-04-29 11:22 37.66903 128.53801 30974 ft 549 kts 80°
2026-04-29 11:22 37.67623 128.58539 31244 ft 550 kts 80°
2026-04-29 11:23 37.68331 128.63288 31446 ft 552 kts 81°
2026-04-29 11:23 37.68991 128.68064 31643 ft 553 kts 85°
2026-04-29 11:23 37.69070 128.72827 31824 ft 549 kts 100°
2026-04-29 11:23 37.68401 128.77526 32099 ft 540 kts 112°
2026-04-29 11:24 37.67123 128.81927 32368 ft 528 kts 124°
2026-04-29 11:24 37.65292 128.85878 32618 ft 519 kts 131°
2026-04-29 11:24 37.63364 128.89725 32876 ft 519 kts 131°
2026-04-29 11:24 37.61436 128.93580 33081 ft 520 kts 131°
2026-04-29 11:25 37.59525 128.97453 33297 ft 521 kts 131°
2026-04-29 11:25 37.57629 129.01353 33542 ft 521 kts 130°
2026-04-29 11:25 37.55745 129.05265 33794 ft 521 kts 130°
2026-04-29 11:25 37.53867 129.09175 34050 ft 521 kts 131°
2026-04-29 11:26 37.50109 129.16987 34431 ft 522 kts 131°
2026-04-29 11:26 37.48220 129.20896 34604 ft 523 kts 131°
2026-04-29 11:26 37.46330 129.24803 34839 ft 522 kts 131°
2026-04-29 11:27 37.44442 129.28700 35094 ft 521 kts 131°
2026-04-29 11:27 37.42576 129.32547 35120 ft 524 kts 131°
2026-04-29 11:27 37.38779 129.40376 35124 ft 523 kts 131°
2026-04-29 11:28 37.34999 129.48172 35134 ft 521 kts 131°
2026-04-29 11:28 37.31218 129.55945 35135 ft 520 kts 131°
2026-04-29 11:29 37.28082 129.62375 35129 ft 520 kts 131°
2026-04-29 11:29 37.23662 129.71415 35156 ft 520 kts 131°
2026-04-29 11:30 37.20511 129.77846 35161 ft 520 kts 131°
2026-04-29 11:30 37.16096 129.86836 35154 ft 522 kts 132°
2026-04-29 11:31 37.12889 129.93323 35158 ft 523 kts 132°
2026-04-29 11:31 37.09041 130.01084 35169 ft 525 kts 132°
2026-04-29 11:32 37.05201 130.08818 35151 ft 527 kts 132°
2026-04-29 11:32 37.01321 130.16621 35146 ft 528 kts 132°
2026-04-29 11:33 36.97425 130.24439 35158 ft 529 kts 132°
2026-04-29 11:33 36.93527 130.32244 35161 ft 529 kts 132°
2026-04-29 11:34 36.89621 130.40045 35165 ft 529 kts 132°
2026-04-29 11:34 36.85744 130.47769 35150 ft 528 kts 132°
2026-04-29 11:35 36.81822 130.55568 35162 ft 526 kts 132°
2026-04-29 11:35 36.77958 130.63231 35163 ft 524 kts 132°
2026-04-29 11:36 36.74066 130.70930 35166 ft 523 kts 133°
2026-04-29 11:36 36.70189 130.78577 35167 ft 521 kts 133°
2026-04-29 11:37 36.66314 130.86204 35171 ft 520 kts 133°
2026-04-29 11:37 36.62444 130.93805 35166 ft 519 kts 132°
2026-04-29 11:38 36.58577 131.01386 35170 ft 518 kts 133°
2026-04-29 11:38 36.54711 131.08948 35174 ft 518 kts 133°
2026-04-29 11:39 36.50847 131.16488 35162 ft 517 kts 132°
2026-04-29 11:39 36.46975 131.24029 35176 ft 517 kts 132°
2026-04-29 11:40 36.43102 131.31556 35172 ft 517 kts 132°
2026-04-29 11:40 36.39346 131.39209 35159 ft 527 kts 123°
2026-04-29 11:41 36.37117 131.47997 35171 ft 542 kts 104°
2026-04-29 11:41 36.36662 131.57309 35168 ft 545 kts 95°
2026-04-29 11:42 36.36499 131.66691 35175 ft 543 kts 95°
2026-04-29 11:42 36.36278 131.76036 35199 ft 542 kts 96°
2026-04-29 11:43 36.35985 131.85386 35180 ft 542 kts 96°
2026-04-29 11:43 36.35666 131.94749 35180 ft 543 kts 96°
2026-04-29 11:44 36.35341 132.04123 35174 ft 545 kts 96°
2026-04-29 11:44 36.35013 132.13522 35187 ft 546 kts 96°
2026-04-29 11:45 36.34678 132.22957 35197 ft 548 kts 96°
2026-04-29 11:45 36.34337 132.32364 35189 ft 550 kts 96°
2026-04-29 11:46 36.33985 132.41864 35175 ft 551 kts 96°
2026-04-29 11:46 36.33626 132.51357 35185 ft 552 kts 96°
2026-04-29 11:47 36.33258 132.60870 35184 ft 552 kts 96°
2026-04-29 11:47 36.32883 132.70363 35188 ft 551 kts 95°
2026-04-29 11:48 36.32501 132.79857 35185 ft 551 kts 96°
2026-04-29 11:48 36.32112 132.89344 35187 ft 550 kts 96°
2026-04-29 11:49 36.31715 132.98814 35187 ft 549 kts 96°
2026-04-29 11:49 36.31312 133.08265 35187 ft 548 kts 96°
2026-04-29 11:50 36.30905 133.17642 35186 ft 548 kts 96°
2026-04-29 11:50 36.30488 133.27069 35196 ft 547 kts 96°
2026-04-29 11:51 36.30063 133.36498 35199 ft 547 kts 96°
2026-04-29 11:51 36.29632 133.45913 35195 ft 547 kts 96°
2026-04-29 11:52 36.29194 133.55324 35197 ft 547 kts 96°
2026-04-29 11:52 36.28748 133.64736 35187 ft 547 kts 96°
2026-04-29 11:53 36.28298 133.74092 35196 ft 548 kts 96°
2026-04-29 11:53 36.27827 133.83530 35200 ft 548 kts 96°
2026-04-29 11:54 36.27334 133.92978 35197 ft 549 kts 96°
2026-04-29 11:54 36.26838 134.02424 35195 ft 549 kts 96°
2026-04-29 11:55 36.26338 134.11882 35201 ft 550 kts 96°
2026-04-29 11:55 36.25845 134.21353 35199 ft 551 kts 96°
2026-04-29 11:56 36.25349 134.30839 35199 ft 551 kts 96°
2026-04-29 11:56 36.24843 134.40315 35191 ft 551 kts 96°
2026-04-29 11:57 36.25313 134.49725 35215 ft 552 kts 75°
2026-04-29 11:57 36.26430 134.54258 35193 ft 549 kts 64°
2026-04-29 11:57 36.28084 134.58480 35192 ft 541 kts 53°
2026-04-29 11:58 36.32074 134.66389 35195 ft 541 kts 51°
2026-04-29 11:58 36.36089 134.74288 35201 ft 542 kts 52°
2026-04-29 11:59 36.40046 134.82264 35198 ft 544 kts 53°
2026-04-29 11:59 36.43975 134.90301 35204 ft 545 kts 53°
2026-04-29 12:00 36.47902 134.98364 35199 ft 546 kts 53°
2026-04-29 12:00 36.51810 135.06394 35203 ft 546 kts 53°
2026-04-29 12:01 36.55738 135.14477 35205 ft 547 kts 53°
2026-04-29 12:01 36.59671 135.22587 35199 ft 547 kts 53°
2026-04-29 12:02 36.63592 135.30696 35200 ft 547 kts 53°
2026-04-29 12:02 36.67509 135.38816 35196 ft 546 kts 53°
2026-04-29 12:03 36.71413 135.46927 35194 ft 546 kts 53°
2026-04-29 12:03 36.75315 135.55053 35200 ft 546 kts 53°
2026-04-29 12:04 36.79185 135.63135 35197 ft 545 kts 53°
2026-04-29 12:04 36.83067 135.71260 35213 ft 545 kts 53°
2026-04-29 12:05 36.86947 135.79401 35200 ft 545 kts 53°
2026-04-29 12:05 36.90827 135.87561 35199 ft 546 kts 53°
2026-04-29 12:06 36.94697 135.95723 35196 ft 546 kts 53°
2026-04-29 12:06 36.98563 136.03892 35196 ft 546 kts 53°
2026-04-29 12:07 37.02424 136.12072 35214 ft 547 kts 53°
2026-04-29 12:07 37.06263 136.20226 35202 ft 547 kts 53°
2026-04-29 12:08 37.10125 136.28452 35198 ft 548 kts 53°
2026-04-29 12:08 37.13982 136.36689 35199 ft 549 kts 53°
2026-04-29 12:09 37.17850 136.44971 35196 ft 549 kts 53°
2026-04-29 12:09 37.21708 136.53250 35220 ft 550 kts 53°
2026-04-29 12:10 37.25542 136.61498 35220 ft 551 kts 53°
2026-04-29 12:10 37.29400 136.69821 35203 ft 552 kts 53°
2026-04-29 12:11 37.33260 136.78169 35208 ft 553 kts 53°
2026-04-29 12:11 37.37118 136.86534 35207 ft 554 kts 53°
2026-04-29 12:12 37.40979 136.94926 35205 ft 554 kts 53°
2026-04-29 12:12 37.44834 137.03326 35195 ft 554 kts 53°
2026-04-29 12:13 37.48685 137.11741 35200 ft 555 kts 53°
2026-04-29 12:13 37.52538 137.20180 35203 ft 556 kts 53°
2026-04-29 12:14 37.56361 137.28577 35209 ft 556 kts 53°
2026-04-29 12:14 37.60206 137.37043 35236 ft 556 kts 53°
2026-04-29 12:15 37.64048 137.45523 35214 ft 557 kts 53°
2026-04-29 12:15 37.67885 137.54018 35209 ft 557 kts 53°
2026-04-29 12:16 37.71713 137.62513 35218 ft 557 kts 53°
2026-04-29 12:16 37.75540 137.71028 35209 ft 557 kts 53°
2026-04-29 12:17 37.79357 137.79544 35222 ft 557 kts 53°
2026-04-29 12:17 37.83146 137.88020 35212 ft 557 kts 53°
2026-04-29 12:18 37.86334 137.95169 35213 ft 557 kts 53°
2026-04-29 12:18 37.90134 138.03714 35210 ft 557 kts 53°
2026-04-29 12:19 37.93928 138.12262 35207 ft 557 kts 53°
2026-04-29 12:19 37.97712 138.20815 35209 ft 556 kts 53°
2026-04-29 12:20 38.01470 138.29331 35208 ft 557 kts 53°
2026-04-29 12:20 38.05473 138.37682 35198 ft 544 kts 41°
2026-04-29 12:21 38.07934 138.41242 35214 ft 532 kts 33°
2026-04-29 12:21 38.10651 138.44370 35239 ft 523 kts 25°
2026-04-29 12:21 38.16640 138.49389 35240 ft 515 kts 18°
2026-04-29 12:22 38.22725 138.54251 35213 ft 517 kts 18°
2026-04-29 12:22 38.28800 138.59190 35216 ft 519 kts 19°
2026-04-29 12:23 38.34866 138.64183 35203 ft 518 kts 19°
2026-04-29 12:23 38.40907 138.69180 35221 ft 517 kts 19°
2026-04-29 12:24 38.46938 138.74172 35219 ft 516 kts 19°
2026-04-29 12:24 38.52949 138.79152 35207 ft 514 kts 19°
2026-04-29 12:25 38.58942 138.84126 35208 ft 513 kts 19°
2026-04-29 12:26 38.67851 138.91539 35195 ft 511 kts 19°
2026-04-29 12:26 38.73803 138.96504 35203 ft 510 kts 19°
2026-04-29 12:27 38.79748 139.01471 35201 ft 510 kts 18°
2026-04-29 12:27 38.85687 139.06445 35230 ft 510 kts 18°
2026-04-29 12:28 38.91626 139.11429 35201 ft 510 kts 18°
2026-04-29 12:28 38.97564 139.16423 35198 ft 510 kts 18°
2026-04-29 12:29 39.03506 139.21429 35218 ft 511 kts 18°
2026-04-29 12:29 39.09455 139.26452 35207 ft 512 kts 18°
2026-04-29 12:30 39.15418 139.31498 35196 ft 512 kts 18°
2026-04-29 12:30 39.21345 139.36524 35201 ft 513 kts 18°
2026-04-29 12:31 39.27311 139.41594 35200 ft 514 kts 18°
2026-04-29 12:31 39.33275 139.46673 35188 ft 514 kts 18°
2026-04-29 12:32 39.39239 139.51763 35191 ft 513 kts 18°
2026-04-29 12:32 39.45202 139.56862 35188 ft 513 kts 18°
2026-04-29 12:33 39.51127 139.61938 35205 ft 513 kts 18°
2026-04-29 12:33 39.57086 139.67054 35190 ft 513 kts 18°
2026-04-29 12:34 39.63035 139.72174 35187 ft 513 kts 18°
2026-04-29 12:34 39.68995 139.77312 35203 ft 514 kts 18°
2026-04-29 12:35 39.74948 139.82457 35189 ft 513 kts 18°
2026-04-29 12:35 39.80889 139.87601 35195 ft 513 kts 18°
2026-04-29 12:35 39.83859 139.90187 34937 ft 513 kts 18°
2026-04-29 12:36 39.86812 139.92779 34700 ft 510 kts 18°
2026-04-29 12:36 39.89750 139.95366 34372 ft 511 kts 18°
2026-04-29 12:36 39.92655 139.97925 33721 ft 511 kts 18°
2026-04-29 12:36 39.95604 140.00524 33094 ft 511 kts 18°
2026-04-29 12:37 39.98545 140.03118 32470 ft 511 kts 18°
2026-04-29 12:37 40.01502 140.05726 31937 ft 510 kts 18°
2026-04-29 12:37 40.04432 140.08320 31400 ft 507 kts 19°
2026-04-29 12:37 40.07341 140.10899 30926 ft 503 kts 19°
2026-04-29 12:38 40.10230 140.13461 30420 ft 500 kts 19°
2026-04-29 12:38 40.13092 140.16000 29914 ft 496 kts 19°
2026-04-29 12:38 40.15934 140.18523 29370 ft 491 kts 20°
2026-04-29 12:38 40.18742 140.21018 28833 ft 486 kts 20°
2026-04-29 12:39 40.21519 140.23489 28333 ft 481 kts 21°
2026-04-29 12:39 40.24272 140.25939 27835 ft 475 kts 21°
2026-04-29 12:39 40.26991 140.28359 27351 ft 470 kts 21°
2026-04-29 12:39 40.29681 140.30755 26902 ft 466 kts 22°
2026-04-29 12:40 40.32350 140.33135 26401 ft 462 kts 22°
2026-04-29 12:40 40.35002 140.35500 25908 ft 458 kts 24°
2026-04-29 12:40 40.37619 140.37839 25441 ft 453 kts 24°
2026-04-29 12:40 40.40217 140.40162 24927 ft 449 kts 24°
2026-04-29 12:41 40.42751 140.42431 24461 ft 445 kts 24°
2026-04-29 12:41 40.45303 140.44718 23974 ft 441 kts 25°
2026-04-29 12:41 40.47830 140.46985 23464 ft 438 kts 25°
2026-04-29 12:41 40.50319 140.49223 22913 ft 428 kts 25°
2026-04-29 12:42 40.52738 140.51406 22431 ft 416 kts 25°
2026-04-29 12:42 40.55088 140.53527 21978 ft 405 kts 25°
2026-04-29 12:42 40.57401 140.55607 21543 ft 401 kts 25°
2026-04-29 12:42 40.59693 140.57667 21101 ft 397 kts 25°
2026-04-29 12:43 40.61962 140.59709 20672 ft 394 kts 25°
2026-04-29 12:43 40.64219 140.61743 20249 ft 391 kts 25°
2026-04-29 12:43 40.66453 140.63758 19800 ft 388 kts 25°
2026-04-29 12:43 40.68675 140.65767 19369 ft 385 kts 26°
2026-04-29 12:44 40.70874 140.67758 18938 ft 382 kts 25°
2026-04-29 12:44 40.73142 140.69474 18507 ft 368 kts 14°
2026-04-29 12:44 40.75524 140.70553 18041 ft 356 kts
2026-04-29 12:44 40.77894 140.71071 17570 ft 345 kts 358°
2026-04-29 12:45 40.80265 140.71347 17184 ft 340 kts 357°
2026-04-29 12:45 40.82613 140.71605 16778 ft 336 kts 358°
2026-04-29 12:45 40.84931 140.71864 16362 ft 333 kts 358°
2026-04-29 12:45 40.87230 140.72128 15955 ft 330 kts 358°
2026-04-29 12:46 40.89511 140.72397 15558 ft 327 kts 359°
2026-04-29 12:46 40.91765 140.72666 15176 ft 324 kts 359°
2026-04-29 12:46 40.94006 140.72936 14791 ft 322 kts 360°
2026-04-29 12:46 40.96225 140.73205 14394 ft 319 kts
2026-04-29 12:47 40.98425 140.73472 14022 ft 317 kts
2026-04-29 12:47 41.00623 140.73739 13490 ft 318 kts
2026-04-29 12:47 41.02808 140.74003 13128 ft 313 kts
2026-04-29 12:47 41.04974 140.74263 12737 ft 310 kts
2026-04-29 12:48 41.07112 140.74520 12363 ft 308 kts
2026-04-29 12:48 41.09234 140.74776 11979 ft 305 kts
2026-04-29 12:48 41.11342 140.75030 11606 ft 303 kts
2026-04-29 12:48 41.13433 140.75286 11227 ft 301 kts
2026-04-29 12:49 41.15514 140.75543 10852 ft 299 kts
2026-04-29 12:49 41.17580 140.75799 10566 ft 295 kts
2026-04-29 12:49 41.19585 140.76049 10438 ft 285 kts
2026-04-29 12:49 41.21507 140.76288 10306 ft 276 kts
2026-04-29 12:50 41.23393 140.76523 10186 ft 268 kts
2026-04-29 12:50 41.25220 140.76749 10072 ft 259 kts
2026-04-29 12:50 41.26990 140.76969 9934 ft 254 kts
2026-04-29 12:50 41.28751 140.77185 9669 ft 253 kts
2026-04-29 12:51 41.30498 140.77401 9409 ft 251 kts
2026-04-29 12:51 41.32230 140.77615 9135 ft 249 kts
2026-04-29 12:51 41.33949 140.77827 8864 ft 247 kts
2026-04-29 12:51 41.35656 140.78039 8605 ft 245 kts
2026-04-29 12:52 41.37350 140.78249 8339 ft 244 kts
2026-04-29 12:52 41.39036 140.78458 8086 ft 242 kts
2026-04-29 12:52 41.40714 140.78667 7821 ft 241 kts
2026-04-29 12:52 41.42378 140.78874 7565 ft 240 kts
2026-04-29 12:53 41.44042 140.79236 7295 ft 250 kts 18°
2026-04-29 12:53 41.45498 140.80604 7082 ft 262 kts 38°
2026-04-29 12:53 41.46850 140.82288 6809 ft 270 kts 39°
2026-04-29 12:53 41.48218 140.84008 6518 ft 270 kts 39°
2026-04-29 12:54 41.49583 140.85719 6210 ft 269 kts 39°
2026-04-29 12:54 41.50945 140.87424 5933 ft 268 kts 38°
2026-04-29 12:54 41.52289 140.89100 5654 ft 267 kts 38°
2026-04-29 12:54 41.53650 140.90793 5377 ft 266 kts 38°
2026-04-29 12:55 41.55002 140.92476 5110 ft 265 kts 38°
2026-04-29 12:55 41.56353 140.94154 4847 ft 264 kts 38°
2026-04-29 12:55 41.57679 140.95804 4719 ft 257 kts 38°
2026-04-29 12:55 41.58967 140.97407 4592 ft 249 kts 38°
2026-04-29 12:56 41.60218 140.98965 4482 ft 242 kts 38°
2026-04-29 12:56 41.61506 141.00303 4357 ft 228 kts 19°
2026-04-29 12:56 41.62934 141.01024 4278 ft 219 kts 14°
2026-04-29 12:56 41.64341 141.01750 4073 ft 213 kts 15°
2026-04-29 12:57 41.65696 141.02468 3874 ft 205 kts 15°
2026-04-29 12:57 41.67000 141.03163 3673 ft 198 kts 15°
2026-04-29 12:57 41.68260 141.03836 3463 ft 192 kts 15°
2026-04-29 12:57 41.69513 141.04139 3235 ft 177 kts 341°
2026-04-29 12:58 41.70542 141.03407 3089 ft 167 kts 310°
2026-04-29 12:58 41.71142 141.02086 2903 ft 169 kts 290°
2026-04-29 12:58 41.71599 141.00622 2694 ft 172 kts 290°
2026-04-29 12:58 41.72054 140.99148 2494 ft 170 kts 290°
2026-04-29 12:59 41.72497 140.97702 2233 ft 164 kts 291°
2026-04-29 12:59 41.72913 140.96348 2079 ft 155 kts 291°
2026-04-29 12:59 41.73325 140.94998 1845 ft 156 kts 290°
2026-04-29 12:59 41.73725 140.93686 1687 ft 151 kts 290°
2026-04-29 13:00 41.74116 140.92402 1444 ft 147 kts 290°
2026-04-29 13:00 41.74499 140.91149 1240 ft 144 kts 290°
2026-04-29 13:00 41.74906 140.89923 1056 ft 146 kts 294°
2026-04-29 13:00 41.75375 140.88698 894 ft 149 kts 296°
2026-04-29 13:01 41.75760 140.87411 694 ft 147 kts 287°
2026-04-29 13:01 41.76065 140.86119 519 ft 147 kts 287°
2026-04-29 13:01 41.76380 140.84817 328 ft 147 kts 288°
2026-04-29 13:01 41.76699 140.83513 161 ft 147 kts 288°
2026-04-29 13:02 41.76982 140.82348 122 ft 105 kts 288°
2026-04-29 13:02 41.77113 140.81810 114 ft 26 kts 288°
2026-04-29 13:02 41.77156 140.81673 112 ft 10 kts 314°
2026-04-29 13:02 41.77223 140.81662 111 ft 10 kts 22°
2026-04-29 13:03 41.77290 140.81681 111 ft 10 kts 344°
2026-04-29 13:03 41.77332 140.81613 111 ft 10 kts 290°
2026-04-29 13:03 41.77357 140.81514 109 ft 12 kts 288°
2026-04-29 13:03 41.77381 140.81423 108 ft 8 kts 300°
2026-04-29 13:04 41.77432 140.81413 107 ft 8 kts 18°
2026-04-29 13:04 41.77486 140.81436 106 ft 8 kts 18°
2026-04-29 13:04 41.77508 140.81446 108 ft 0 kts 18°